AKROBAT UKHP-UKHH

Flight info

Callsign AKROBAT
Flight time 0h 24m
Altitude 2000
Route DCT
Aircraft L29/M-VGD/A

Departure

Time 2026-04-13 21:17
Airport Suprunovka Airport (UKHP)

Arrival

Time 2026-04-13 21:41
Airport Kharkiv International Airport (UKHH)
Time Latitude Longitude Altitude Speed Heading
2026-04-13 21:08 49.57336 34.39712 496 ft 0 kts 96°
2026-04-13 21:12 49.57336 34.39714 496 ft 0 kts 96°
2026-04-13 21:13 49.57335 34.39739 496 ft 3 kts 96°
2026-04-13 21:13 49.57328 34.39753 496 ft 0 kts 218°
2026-04-13 21:13 49.57323 34.39752 496 ft 0 kts 158°
2026-04-13 21:13 49.57317 34.39765 496 ft 2 kts 124°
2026-04-13 21:14 49.57302 34.39785 496 ft 3 kts 160°
2026-04-13 21:14 49.57287 34.39785 496 ft 0 kts 195°
2026-04-13 21:14 49.57257 34.39783 496 ft 7 kts 183°
2026-04-13 21:14 49.57193 34.39767 496 ft 9 kts 204°
2026-04-13 21:15 49.57132 34.39759 495 ft 8 kts 186°
2026-04-13 21:15 49.57077 34.39743 494 ft 6 kts 182°
2026-04-13 21:15 49.56994 34.39728 493 ft 14 kts 189°
2026-04-13 21:15 49.56931 34.39676 492 ft 3 kts 280°
2026-04-13 21:16 49.56931 34.39669 492 ft 1 kts 270°
2026-04-13 21:16 49.56939 34.39464 492 ft 52 kts 274°
2026-04-13 21:16 49.57003 34.38554 528 ft 111 kts 275°
2026-04-13 21:16 49.57074 34.37288 906 ft 127 kts 274°
2026-04-13 21:17 49.57358 34.36063 1173 ft 128 kts 319°
2026-04-13 21:17 49.58263 34.35519 1357 ft 162 kts 356°
2026-04-13 21:17 49.59508 34.35439 1706 ft 199 kts 359°
2026-04-13 21:17 49.61034 34.35605 2137 ft 230 kts 11°
2026-04-13 21:18 49.62468 34.36887 2732 ft 246 kts 49°
2026-04-13 21:18 49.63481 34.39136 3113 ft 268 kts 60°
2026-04-13 21:18 49.64198 34.41901 3557 ft 282 kts 78°
2026-04-13 21:18 49.64277 34.44965 4073 ft 289 kts 81°
2026-04-13 21:19 49.64978 34.47945 4466 ft 300 kts 60°
2026-04-13 21:19 49.66184 34.50607 4802 ft 310 kts 51°
2026-04-13 21:19 49.67744 34.53021 5009 ft 320 kts 42°
2026-04-13 21:19 49.69478 34.55282 4569 ft 346 kts 40°
2026-04-13 21:20 49.71049 34.58219 4365 ft 354 kts 57°
2026-04-13 21:20 49.72110 34.61658 4402 ft 356 kts 68°
2026-04-13 21:20 49.73009 34.65329 3564 ft 376 kts 69°
2026-04-13 21:20 49.74027 34.69073 2907 ft 384 kts 66°
2026-04-13 21:21 49.75081 34.72827 2932 ft 372 kts 66°
2026-04-13 21:21 49.76114 34.76407 3265 ft 358 kts 65°
2026-04-13 21:21 49.77219 34.79811 3385 ft 355 kts 60°
2026-04-13 21:21 49.78577 34.82962 3543 ft 352 kts 54°
2026-04-13 21:22 49.80074 34.86038 3428 ft 357 kts 52°
2026-04-13 21:22 49.81088 34.88193 3425 ft 357 kts 57°
2026-04-13 21:22 49.81445 34.89059 3480 ft 356 kts 58°
2026-04-13 21:24 49.82206 34.90929 3638 ft 352 kts 57°
2026-04-13 21:24 49.83516 34.94141 3640 ft 355 kts 58°
2026-04-13 21:24 49.84655 34.97578 3318 ft 363 kts 71°
2026-04-13 21:24 49.85279 35.01325 3327 ft 361 kts 77°
2026-04-13 21:25 49.85664 35.03995 3267 ft 342 kts 78°
2026-04-13 21:25 49.86077 35.07617 3269 ft 345 kts 81°
2026-04-13 21:25 49.86344 35.10326 3284 ft 348 kts 82°
2026-04-13 21:25 49.86733 35.13994 3551 ft 344 kts 80°
2026-04-13 21:26 49.87065 35.17033 3635 ft 346 kts 81°
2026-04-13 21:26 49.87355 35.20790 3334 ft 358 kts 83°
2026-04-13 21:26 49.87696 35.24612 2946 ft 345 kts 79°
2026-04-13 21:26 49.88293 35.27864 2911 ft 283 kts 63°
2026-04-13 21:27 49.89175 35.30450 2576 ft 278 kts 57°
2026-04-13 21:27 49.90237 35.33198 2515 ft 308 kts 64°
2026-04-13 21:27 49.90989 35.36389 2595 ft 322 kts 72°
2026-04-13 21:27 49.91698 35.39793 2650 ft 332 kts 72°
2026-04-13 21:28 49.92623 35.43093 2774 ft 338 kts 62°
2026-04-13 21:28 49.93733 35.46310 2897 ft 342 kts 60°
2026-04-13 21:28 49.94568 35.49889 1723 ft 377 kts 72°
2026-04-13 21:28 49.93419 35.52595 1385 ft 361 kts 149°
2026-04-13 21:29 49.91884 35.55176 2047 ft 305 kts 122°
2026-04-13 21:29 49.91067 35.58261 2290 ft 318 kts 103°
2026-04-13 21:29 49.90831 35.61632 2288 ft 306 kts 91°
2026-04-13 21:29 49.90770 35.64928 1771 ft 305 kts 96°
2026-04-13 21:30 49.90458 35.68266 1563 ft 322 kts 99°
2026-04-13 21:30 49.90043 35.71715 1830 ft 327 kts 107°
2026-04-13 21:30 49.89236 35.75042 2421 ft 323 kts 111°
2026-04-13 21:30 49.88654 35.78540 2417 ft 337 kts 97°
2026-04-13 21:31 49.88627 35.82238 2592 ft 341 kts 88°
2026-04-13 21:31 49.88732 35.85990 2615 ft 347 kts 87°
2026-04-13 21:31 49.88901 35.89777 2454 ft 355 kts 86°
2026-04-13 21:31 49.89133 35.93599 2481 ft 356 kts 84°
2026-04-13 21:32 49.89405 35.97407 2433 ft 358 kts 84°
2026-04-13 21:32 49.89670 36.01306 2160 ft 364 kts 84°
2026-04-13 21:32 49.89909 36.05176 2180 ft 361 kts 85°
2026-04-13 21:32 49.90129 36.09073 2142 ft 361 kts 85°
2026-04-13 21:33 49.90555 36.12912 1894 ft 365 kts 77°
2026-04-13 21:33 49.91095 36.16669 1870 ft 329 kts 76°
2026-04-13 21:33 49.92670 36.17151 1827 ft 264 kts 317°
2026-04-13 21:34 49.92512 36.13110 1687 ft 206 kts 193°
2026-04-13 21:34 49.91586 36.14226 1282 ft 217 kts 92°
2026-04-13 21:34 49.91662 36.16727 1242 ft 249 kts 84°
2026-04-13 21:34 49.91901 36.19523 1317 ft 279 kts 81°
2026-04-13 21:35 49.92160 36.22715 1131 ft 316 kts 82°
2026-04-13 21:35 49.92460 36.26247 860 ft 340 kts 83°
2026-04-13 21:35 49.93576 36.33181 1241 ft 336 kts 38°
2026-04-13 21:36 49.95609 36.32913 1600 ft 332 kts 306°
2026-04-13 21:36 49.95532 36.29485 1842 ft 312 kts 252°
2026-04-13 21:36 49.94876 36.26500 1734 ft 277 kts 249°
2026-04-13 21:36 49.94389 36.23765 1703 ft 254 kts 264°
2026-04-13 21:37 49.94787 36.21172 1489 ft 243 kts 302°
2026-04-13 21:37 49.96143 36.19763 1546 ft 254 kts 336°
2026-04-13 21:37 49.97773 36.18863 1694 ft 234 kts 359°
2026-04-13 21:37 49.99309 36.19494 1649 ft 232 kts 20°
2026-04-13 21:38 50.00717 36.20817 1713 ft 234 kts 40°
2026-04-13 21:38 50.01893 36.22435 1713 ft 223 kts 42°
2026-04-13 21:38 50.03016 36.23960 1789 ft 203 kts 39°
2026-04-13 21:38 50.03188 36.24177 1738 ft 203 kts 39°
2026-04-13 21:39 50.03992 36.25111 1651 ft 194 kts 35°
2026-04-13 21:39 50.05061 36.26328 1517 ft 185 kts 38°
2026-04-13 21:39 50.05988 36.27529 1432 ft 160 kts 55°
2026-04-13 21:39 50.05862 36.28941 1298 ft 136 kts 162°
2026-04-13 21:40 50.05051 36.28766 1139 ft 105 kts 192°
2026-04-13 21:40 50.04366 36.28469 922 ft 100 kts 200°
2026-04-13 21:40 50.03779 36.27969 744 ft 93 kts 210°
2026-04-13 21:40 50.03246 36.27461 619 ft 87 kts 213°
2026-04-13 21:41 50.02765 36.26984 582 ft 71 kts 212°
2026-04-13 21:41 50.02464 36.26686 577 ft 16 kts 206°
2026-04-13 21:41 50.02465 36.26678 577 ft 6 kts 19°
2026-04-13 21:41 50.02492 36.26695 578 ft 2 kts 52°
2026-04-13 21:42 50.02502 36.26707 578 ft 0 kts 32°
2026-04-13 21:42 50.02528 36.26733 579 ft 5 kts 32°
2026-04-13 21:42 50.02554 36.26758 579 ft 12 kts 33°
2026-04-13 21:42 50.02598 36.26807 580 ft 21 kts 36°
2026-04-13 21:43 50.02773 36.26972 581 ft 36 kts 33°
2026-04-13 21:43 50.02943 36.27132 584 ft 30 kts 28°
2026-04-13 21:43 50.03069 36.27250 584 ft 12 kts 28°
2026-04-13 21:43 50.03039 36.27255 584 ft 10 kts 218°
2026-04-13 21:44 50.03020 36.27231 584 ft 2 kts 206°
2026-04-13 21:44 50.03013 36.27226 584 ft 1 kts 228°
2026-04-13 21:44 50.03010 36.27226 584 ft 1 kts 143°
2026-04-13 21:44 50.03010 36.27234 584 ft 1 kts 185°
2026-04-13 21:45 50.03003 36.27227 584 ft 0 kts 215°
2026-04-13 21:45 50.02991 36.27216 584 ft 5 kts 210°
2026-04-13 21:45 50.02809 36.27023 581 ft 67 kts 213°
2026-04-13 21:45 50.02245 36.26457 585 ft 124 kts 215°
2026-04-13 21:46 50.01426 36.25594 838 ft 154 kts 216°
2026-04-13 21:46 50.00555 36.24464 1188 ft 174 kts 222°
2026-04-13 21:46 49.99656 36.23008 1445 ft 197 kts 226°
2026-04-13 21:46 49.98635 36.21466 1754 ft 210 kts 223°
2026-04-13 21:47 49.97629 36.19756 2035 ft 221 kts 234°
2026-04-13 21:47 49.96847 36.17591 2145 ft 234 kts 242°
2026-04-13 21:47 49.96072 36.15336 2378 ft 237 kts 241°
2026-04-13 21:47 49.95035 36.13631 2668 ft 225 kts 164°
2026-04-13 21:48 49.94843 36.15819 2521 ft 231 kts 83°
2026-04-13 21:48 49.94010 36.17345 1902 ft 230 kts 205°
2026-04-13 21:48 49.93480 36.15182 1467 ft 220 kts 266°
2026-04-13 21:48 49.93407 36.12851 1465 ft 206 kts 258°
2026-04-13 21:49 49.92587 36.11428 1782 ft 176 kts 193°
2026-04-13 21:49 49.91606 36.12117 1659 ft 182 kts 99°
2026-04-13 21:49 49.91515 36.14307 1420 ft 218 kts 87°
2026-04-13 21:49 49.91665 36.16735 1169 ft 233 kts 84°
2026-04-13 21:50 49.91868 36.19231 1044 ft 236 kts 84°
2026-04-13 21:50 49.92081 36.21827 642 ft 248 kts 82°
2026-04-13 21:50 49.92307 36.24489 563 ft 262 kts 83°
2026-04-13 21:50 49.92557 36.27513 537 ft 297 kts 83°
2026-04-13 21:51 49.92941 36.30297 501 ft 143 kts 33°
2026-04-13 21:51 49.93076 36.30536 510 ft 29 kts 279°
2026-04-13 21:51 49.93082 36.30560 511 ft 3 kts 286°
2026-04-13 21:51 50.03179 36.27390 587 ft 0 kts 212°
2026-04-13 21:52 50.03146 36.27353 587 ft 24 kts 225°
2026-04-13 21:52 50.02787 36.26997 582 ft 98 kts 213°
2026-04-13 21:52 50.02052 36.26250 663 ft 145 kts 216°
2026-04-13 21:52 50.01139 36.25198 874 ft 189 kts 220°
2026-04-13 21:53 50.00166 36.23942 1741 ft 195 kts 222°
2026-04-13 21:53 49.98807 36.22847 2045 ft 236 kts 199°
2026-04-13 21:53 49.97107 36.21941 2121 ft 275 kts 205°
2026-04-13 21:53 49.96338 36.19292 2206 ft 291 kts 257°
2026-04-13 21:54 49.95813 36.16194 2387 ft 310 kts 255°
2026-04-13 21:54 49.94469 36.13938 2144 ft 336 kts 178°
2026-04-13 21:54 49.92168 36.14727 1727 ft 345 kts 131°
2026-04-13 21:54 49.91820 36.18230 1304 ft 358 kts 85°
2026-04-13 21:55 49.92101 36.22176 767 ft 370 kts 81°
2026-04-13 21:55 49.92442 36.26165 526 ft 371 kts 81°
2026-04-13 21:55 49.92775 36.30049 567 ft 365 kts 81°
2026-04-13 21:55 49.93051 36.33714 957 ft 309 kts 82°
2026-04-13 21:56 49.93240 36.36739 1039 ft 263 kts 74°
2026-04-13 21:56 49.94044 36.38940 1326 ft 220 kts 26°
2026-04-13 21:56 49.95519 36.38868 1594 ft 212 kts 333°
2026-04-13 21:56 49.95960 36.36964 1490 ft 214 kts 249°
2026-04-13 21:57 49.95466 36.34802 1426 ft 209 kts 255°
2026-04-13 21:57 49.95107 36.32853 1563 ft 170 kts 256°
2026-04-13 21:57 49.94820 36.31232 1548 ft 144 kts 258°
2026-04-13 21:57 49.94583 36.29801 1526 ft 122 kts 258°
2026-04-13 21:58 49.94431 36.28639 1499 ft 100 kts 262°
2026-04-13 21:58 49.94333 36.27558 1492 ft 105 kts 268°
2026-04-13 21:58 49.94252 36.26466 1488 ft 108 kts 262°
2026-04-13 21:58 49.94065 36.25088 1366 ft 149 kts 259°
2026-04-13 21:59 49.93756 36.23360 1320 ft 174 kts 256°
2026-04-13 21:59 49.93436 36.21548 1411 ft 171 kts 258°
2026-04-13 21:59 49.93153 36.19799 1555 ft 166 kts 259°
2026-04-13 21:59 49.92703 36.18229 1747 ft 161 kts 213°
2026-04-13 22:00 49.91622 36.18554 1549 ft 182 kts 131°
2026-04-13 22:00 49.91659 36.20346 1287 ft 187 kts 59°
2026-04-13 22:00 49.92106 36.22241 1035 ft 190 kts 76°
2026-04-13 22:00 49.92271 36.24267 830 ft 186 kts 81°
2026-04-13 22:01 49.92440 36.26241 628 ft 184 kts 79°
2026-04-13 22:01 49.92605 36.28183 521 ft 176 kts 81°
2026-04-13 22:01 49.92751 36.30062 514 ft 190 kts 81°
2026-04-13 22:01 49.93054 36.32313 815 ft 226 kts 48°
2026-04-13 22:02 49.94581 36.32834 968 ft 246 kts 357°
2026-04-13 22:02 49.96231 36.32984 1377 ft 216 kts
2026-04-13 22:02 49.97583 36.33226 1841 ft 188 kts
2026-04-13 22:02 49.98969 36.33427 1532 ft 215 kts
2026-04-13 22:03 50.00496 36.33540 1554 ft 226 kts 358°
2026-04-13 22:03 50.02052 36.33243 1631 ft 230 kts 349°
2026-04-13 22:03 50.03540 36.32910 1731 ft 202 kts 351°
2026-04-13 22:03 50.04762 36.32222 1829 ft 178 kts 327°
2026-04-13 22:04 50.05589 36.30838 1427 ft 186 kts 275°
2026-04-13 22:04 50.04866 36.29239 910 ft 179 kts 223°
2026-04-13 22:04 50.03956 36.28187 707 ft 147 kts 215°
2026-04-13 22:04 50.03234 36.27459 613 ft 104 kts 217°
2026-04-13 22:05 50.02745 36.26976 582 ft 61 kts 213°
2026-04-13 22:05 50.02594 36.26770 580 ft 8 kts 314°
2026-04-13 22:05 50.02625 36.26717 581 ft 2 kts 316°
2026-04-13 22:05 50.02629 36.26711 581 ft 0 kts 314°
2026-04-13 22:06 50.02630 36.26710 581 ft 0 kts 313°
2026-04-13 22:06 50.02632 36.26706 581 ft 0 kts 306°
2026-04-13 22:06 50.02634 36.26701 581 ft 0 kts 306°
2026-04-13 22:06 50.02640 36.26685 581 ft 2 kts 298°
2026-04-13 22:07 50.02652 36.26660 581 ft 4 kts 307°
2026-04-13 22:07 50.02663 36.26638 581 ft 0 kts 307°
2026-04-13 22:07 50.02665 36.26630 581 ft 0 kts 308°
2026-04-13 22:07 50.02667 36.26626 581 ft 0 kts 305°
2026-04-13 22:08 50.02668 36.26623 581 ft 0 kts 304°
2026-04-13 22:08 50.02669 36.26621 581 ft 0 kts 304°
2026-04-13 22:09 50.02671 36.26615 581 ft 2 kts 280°
2026-04-13 22:09 50.02657 36.26584 581 ft 0 kts 184°
2026-04-13 22:09 50.02654 36.26581 581 ft 0 kts 217°